owner,sensor,date,latitude,longitude,vertical_datum,wind_speed,wind_to_direction,wind_speed_of_gust,qcFlag 
TABS,ioos:station:wmo:42045:1,2007-04-01T00:00:00Z,26.2168,-96.4998,4.0,4.202487359,144.0029925,5.46,'11111222,11111222,11111222' 
TABS,ioos:station:wmo:42045:1,2007-04-01T00:30:00Z,26.2168,-96.4998,4.0,4.575958916,152.2592296,5.85,'11111222,11111222,11111222' 
TABS,ioos:station:wmo:42045:1,2007-04-01T01:00:00Z,26.2168,-96.4998,4.0,5.274713262,151.8319451,6.71,'11111222,11111222,11111222' 
TABS,ioos:station:wmo:42045:1,2007-04-01T01:30:00Z,26.2168,-96.4998,4.0,4.85273119,154.2272766,6.05,'11111222,11111222,11111222' 
TABS,ioos:station:wmo:42045:1,2007-04-01T02:00:00Z,26.2168,-96.4998,4.0,4.446324325,162.0543026,5.59,'11111222,11111222,11111222' 
TABS,ioos:station:wmo:42045:1,2007-04-01T02:30:00Z,26.2168,-96.4998,4.0,3.89277536,161.4256731,4.97,'11111222,11111222,11111222' 
TABS,ioos:station:wmo:42045:1,2007-04-01T03:00:00Z,26.2168,-96.4998,4.0,4.540495568,167.9231084,5.98,'11111222,11111222,11111222' 
TABS,ioos:station:wmo:42045:1,2007-04-01T03:30:00Z,26.2168,-96.4998,4.0,4.968229061,162.1852843,6.25,'11111222,11111222,11111222' 
TABS,ioos:station:wmo:42045:1,2007-04-01T04:00:00Z,26.2168,-96.4998,4.0,4.019564653,164.8576433,5.25,'11111222,11111222,11111222' 
TABS,ioos:station:wmo:42045:1,2007-04-01T04:30:00Z,26.2168,-96.4998,4.0,2.786269908,199.280507,3.85,'11111222,11111222,11111222' 
TABS,ioos:station:wmo:42045:1,2007-04-01T05:00:00Z,26.2168,-96.4998,4.0,3.279908535,190.0081669,4.42,'11111222,11111222,11111222' 
TABS,ioos:station:wmo:42045:1,2007-04-01T05:30:00Z,26.2168,-96.4998,4.0,2.89108976,194.4209499,3.7,'11111222,11111222,11111222' 
TABS,ioos:station:wmo:42045:1,2007-04-01T06:00:00Z,26.2168,-96.4998,4.0,3.870917204,193.7492273,4.89,'11111222,11111222,11111222' 
TABS,ioos:station:wmo:42045:1,2007-04-01T06:30:00Z,26.2168,-96.4998,4.0,3.418259791,188.5806847,4.55,'11111222,11111222,11111222' 
TABS,ioos:station:wmo:42045:1,2007-04-01T07:00:00Z,26.2168,-96.4998,4.0,3.515408938,202.4068887,4.6,'11111222,11111222,11111222' 
TABS,ioos:station:wmo:42045:1,2007-04-01T07:30:00Z,26.2168,-96.4998,4.0,3.228451641,217.8284098,4.14,'11111222,11111222,11111222' 
TABS,ioos:station:wmo:42045:1,2007-04-01T08:00:00Z,26.2168,-96.4998,4.0,2.762788446,218.2388825,3.52,'11111222,11111222,11111222' 
TABS,ioos:station:wmo:42045:1,2007-04-01T08:30:00Z,26.2168,-96.4998,4.0,2.509541791,205.2377305,3.4,'11111222,11111222,11111222' 
TABS,ioos:station:wmo:42045:1,2007-04-01T09:00:00Z,26.2168,-96.4998,4.0,2.701184925,224.7001308,3.38,'11111222,11111222,11111222' 
TABS,ioos:station:wmo:42045:1,2007-04-01T09:30:00Z,26.2168,-96.4998,4.0,2.516028617,216.5967538,3.24,'11111222,11111222,11111222' 
TABS,ioos:station:wmo:42045:1,2007-04-01T10:00:00Z,26.2168,-96.4998,4.0,2.625452342,242.5566116,3.39,'11111222,11111222,11111222' 
TABS,ioos:station:wmo:42045:1,2007-04-01T10:30:00Z,26.2168,-96.4998,4.0,2.291396954,235.1309695,2.88,'11111222,11111222,11111222' 
TABS,ioos:station:wmo:42045:1,2007-04-01T11:00:00Z,26.2168,-96.4998,4.0,2.541908732,241.3176504,3.29,'11111222,11111222,11111222' 
TABS,ioos:station:wmo:42045:1,2007-04-01T11:30:00Z,26.2168,-96.4998,4.0,2.802159881,267.7502566,3.77,'11111222,11111222,11111222' 
TABS,ioos:station:wmo:42045:1,2007-04-01T12:00:00Z,26.2168,-96.4998,4.0,2.776706682,260.673391,3.51,'11111222,11111222,11111222' 
TABS,ioos:station:wmo:42045:1,2007-04-01T12:30:00Z,26.2168,-96.4998,4.0,1.57318149,266.355519,2.59,'11111222,11111222,11111222' 
TABS,ioos:station:wmo:42045:1,2007-04-01T13:00:00Z,26.2168,-96.4998,4.0,0.089442719,116.56541,1.07,'11111222,11111222,11111222' 
TABS,ioos:station:wmo:42045:1,2007-04-01T13:30:00Z,26.2168,-96.4998,4.0,1.331540461,292.5205129,2.12,'11111222,11111222,11111222' 
TABS,ioos:station:wmo:42045:1,2007-04-01T14:00:00Z,26.2168,-96.4998,4.0,1.034698024,246.6560436,2.1,'11111222,11111222,11111222' 
TABS,ioos:station:wmo:42045:1,2007-04-01T14:30:00Z,26.2168,-96.4998,4.0,0.834865259,96.18902241,1.8,'11111222,11111222,11111222' 
TABS,ioos:station:wmo:42045:1,2007-04-01T15:00:00Z,26.2168,-96.4998,4.0,1.443468046,3.972276193,2.01,'11111222,11111222,11111222' 
TABS,ioos:station:wmo:42045:1,2007-04-01T15:30:00Z,26.2168,-96.4998,4.0,1.979141228,58.63870447,3.08,'11111222,11111222,11111222' 
TABS,ioos:station:wmo:42045:1,2007-04-01T16:00:00Z,26.2168,-96.4998,4.0,2.014571915,107.6258659,2.87,'11111222,11111222,11111222' 
TABS,ioos:station:wmo:42045:1,2007-04-01T16:30:00Z,26.2168,-96.4998,4.0,2.170829335,112.1938735,2.93,'11111222,11111222,11111222' 
TABS,ioos:station:wmo:42045:1,2007-04-01T17:00:00Z,26.2168,-96.4998,4.0,2.178164365,103.2710338,2.9,'11111222,11111222,11111222' 
TABS,ioos:station:wmo:42045:1,2007-04-01T17:30:00Z,26.2168,-96.4998,4.0,1.394417441,98.24672245,2.23,'11111222,11111222,11111222' 
TABS,ioos:station:wmo:42045:1,2007-04-01T18:00:00Z,26.2168,-96.4998,4.0,1.136485812,118.3694009,1.99,'11111222,11111222,11111222' 
TABS,ioos:station:wmo:42045:1,2007-04-01T18:30:00Z,26.2168,-96.4998,4.0,1.61245155,133.995232,2.63,'11111222,11111222,11111222' 
TABS,ioos:station:wmo:42045:1,2007-04-01T19:00:00Z,26.2168,-96.4998,4.0,2.464731223,140.4328429,3.4,'11111222,11111222,11111222' 
TABS,ioos:station:wmo:42045:1,2007-04-01T19:30:00Z,26.2168,-96.4998,4.0,3.397675676,132.3761018,4.79,'11111222,11111222,11111222' 
TABS,ioos:station:wmo:42045:1,2007-04-01T20:00:00Z,26.2168,-96.4998,4.0,4.63729447,110.9757881,6.67,'11111222,11111222,11111222' 
TABS,ioos:station:wmo:42045:1,2007-04-01T20:30:00Z,26.2168,-96.4998,4.0,4.532129742,114.9256074,6.31,'11111222,11111222,11111222' 
TABS,ioos:station:wmo:42045:1,2007-04-01T21:00:00Z,26.2168,-96.4998,4.0,5.218927093,114.2080866,6.68,'11111222,11111222,11111222' 
TABS,ioos:station:wmo:42045:1,2007-04-01T21:30:00Z,26.2168,-96.4998,4.0,5.563353305,116.7035825,6.87,'11111222,11111222,11111222' 
TABS,ioos:station:wmo:42045:1,2007-04-01T22:00:00Z,26.2168,-96.4998,4.0,5.901194794,118.2156241,7.31,'11111222,11111222,11111222' 
TABS,ioos:station:wmo:42045:1,2007-04-01T22:30:00Z,26.2168,-96.4998,4.0,5.539250852,114.761055,6.85,'11111222,11111222,11111222' 
TABS,ioos:station:wmo:42045:1,2007-04-01T23:00:00Z,26.2168,-96.4998,4.0,5.607209645,106.366857,7.11,'11111222,11111222,11111222' 
TABS,ioos:station:wmo:42045:1,2007-04-01T23:30:00Z,26.2168,-96.4998,4.0,5.98546573,106.8004825,7.67,'11111222,11111222,11111222' 
TABS,ioos:station:wmo:42045:1,2007-04-02T00:00:00Z,26.2168,-96.4998,4.0,5.778970497,111.4151502,7.09,'11111222,11111222,11111222' 
TABS,ioos:station:wmo:42045:1,2007-04-02T00:30:00Z,26.2168,-96.4998,4.0,5.944156795,112.034469,7.21,'11111222,11111222,11111222' 
TABS,ioos:station:wmo:42045:1,2007-04-02T01:00:00Z,26.2168,-96.4998,4.0,5.983778071,116.8223394,7.9,'11111222,11111222,11111222' 
TABS,ioos:station:wmo:42045:1,2007-04-02T01:30:00Z,26.2168,-96.4998,4.0,5.813811142,121.0655132,7.27,'11111222,11111222,11111222' 
TABS,ioos:station:wmo:42045:1,2007-04-02T02:00:00Z,26.2168,-96.4998,4.0,6.090205251,118.5432392,7.82,'11111222,11111222,11111222' 
TABS,ioos:station:wmo:42045:1,2007-04-02T02:30:00Z,26.2168,-96.4998,4.0,5.829279544,112.3858499,7.74,'11111222,11111222,11111222' 
TABS,ioos:station:wmo:42045:1,2007-04-02T03:00:00Z,26.2168,-96.4998,4.0,5.283048362,111.6608062,6.92,'11111222,11111222,11111222' 
TABS,ioos:station:wmo:42045:1,2007-04-02T03:30:00Z,26.2168,-96.4998,4.0,4.667954584,133.7851357,5.75,'11111222,11111222,11111222' 
TABS,ioos:station:wmo:42045:1,2007-04-02T04:00:00Z,26.2168,-96.4998,4.0,3.930203557,142.5472574,5.08,'11111222,11111222,11111222' 
TABS,ioos:station:wmo:42045:1,2007-04-02T04:30:00Z,26.2168,-96.4998,4.0,4.849340161,156.289704,5.91,'11111222,11111222,11111222' 
TABS,ioos:station:wmo:42045:1,2007-04-02T05:00:00Z,26.2168,-96.4998,4.0,4.513734596,165.5021964,5.82,'11111222,11111222,11111222' 
TABS,ioos:station:wmo:42045:1,2007-04-02T05:30:00Z,26.2168,-96.4998,4.0,4.381278352,168.9467738,5.7,'11111222,11111222,11111222' 
TABS,ioos:station:wmo:42045:1,2007-04-02T06:00:00Z,26.2168,-96.4998,4.0,4.410011338,180.1301323,5.65,'11111222,11111222,11111222' 
TABS,ioos:station:wmo:42045:1,2007-04-02T06:30:00Z,26.2168,-96.4998,4.0,5.062815422,175.9226662,6.51,'11111222,11111222,11111222' 
TABS,ioos:station:wmo:42045:1,2007-04-02T07:00:00Z,26.2168,-96.4998,4.0,4.927402967,176.859088,6.32,'11111222,11111222,11111222' 
TABS,ioos:station:wmo:42045:1,2007-04-02T07:30:00Z,26.2168,-96.4998,4.0,7.834085779,172.666567,9.45,'11111222,11111222,11111222' 
TABS,ioos:station:wmo:42045:1,2007-04-02T08:00:00Z,26.2168,-96.4998,4.0,7.570059445,180.2272726,8.93,'11111222,11111222,11111222' 
TABS,ioos:station:wmo:42045:1,2007-04-02T08:30:00Z,26.2168,-96.4998,4.0,8.00359919,181.7185644,9.96,'11111222,11111222,11111222' 
TABS,ioos:station:wmo:42045:1,2007-04-02T09:00:00Z,26.2168,-96.4998,4.0,5.922946902,198.4045259,8.14,'11111222,11111222,11111222' 
TABS,ioos:station:wmo:42045:1,2007-04-02T09:30:00Z,26.2168,-96.4998,4.0,6.017059082,222.3058272,7.63,'11111222,11111222,11111222' 
TABS,ioos:station:wmo:42045:1,2007-04-02T10:00:00Z,26.2168,-96.4998,4.0,6.177200013,196.2640873,7.41,'11111222,11111222,11111222' 
TABS,ioos:station:wmo:42045:1,2007-04-02T10:30:00Z,26.2168,-96.4998,4.0,5.753233873,183.8871463,7.42,'11111222,11111222,11111222' 
TABS,ioos:station:wmo:42045:1,2007-04-02T11:00:00Z,26.2168,-96.4998,4.0,4.261384751,222.3371107,6.25,'11111222,11111222,11111222' 
TABS,ioos:station:wmo:42045:1,2007-04-02T11:30:00Z,26.2168,-96.4998,4.0,4.999379962,193.0635172,11.56,'11111222,11111222,11111222' 
TABS,ioos:station:wmo:42045:1,2007-04-02T12:00:00Z,26.2168,-96.4998,4.0,6.372723123,171.3360953,8.2,'11111222,11111222,11111222' 
TABS,ioos:station:wmo:42045:1,2007-04-02T12:30:00Z,26.2168,-96.4998,4.0,5.158778925,166.2064341,7.21,'11111222,11111222,11111222' 
TABS,ioos:station:wmo:42045:1,2007-04-02T13:00:00Z,26.2168,-96.4998,4.0,3.387535978,125.1447778,4.21,'11111222,11111222,11111222' 
TABS,ioos:station:wmo:42045:1,2007-04-02T13:30:00Z,26.2168,-96.4998,4.0,3.689891597,122.26908,4.68,'11111222,11111222,11111222' 
TABS,ioos:station:wmo:42045:1,2007-04-02T14:00:00Z,26.2168,-96.4998,4.0,0.164924225,75.96336844,0.88,'11111222,11111222,11111222' 
TABS,ioos:station:wmo:42045:1,2007-04-02T14:30:00Z,26.2168,-96.4998,4.0,0.657875368,109.5370302,1.4,'11111222,11111222,11111222' 
TABS,ioos:station:wmo:42045:1,2007-04-02T15:00:00Z,26.2168,-96.4998,4.0,1.188696765,137.0457194,2.51,'11111222,11111222,11111222' 
TABS,ioos:station:wmo:42045:1,2007-04-02T15:30:00Z,26.2168,-96.4998,4.0,1.300961183,219.0726149,1.96,'11111222,11111222,11111222' 
TABS,ioos:station:wmo:42045:1,2007-04-02T16:00:00Z,26.2168,-96.4998,4.0,2.401332963,181.9093584,3.21,'11111222,11111222,11111222' 
TABS,ioos:station:wmo:42045:1,2007-04-02T16:30:00Z,26.2168,-96.4998,4.0,2.09954757,146.4615969,2.99,'11111222,11111222,11111222' 
TABS,ioos:station:wmo:42045:1,2007-04-02T17:00:00Z,26.2168,-96.4998,4.0,3.790962938,110.5387288,6.46,'11111222,11111222,11111222' 
TABS,ioos:station:wmo:42045:1,2007-04-02T17:30:00Z,26.2168,-96.4998,4.0,4.644620544,75.66417719,5.99,'11111222,11111222,11111222' 
TABS,ioos:station:wmo:42045:1,2007-04-02T18:00:00Z,26.2168,-96.4998,4.0,3.488266045,116.56541,5.31,'11111222,11111222,11111222' 
TABS,ioos:station:wmo:42045:1,2007-04-02T18:30:00Z,26.2168,-96.4998,4.0,2.909518861,141.2789836,3.72,'11111222,11111222,11111222' 
TABS,ioos:station:wmo:42045:1,2007-04-02T19:00:00Z,26.2168,-96.4998,4.0,3.622706171,145.345149,4.52,'11111222,11111222,11111222' 
TABS,ioos:station:wmo:42045:1,2007-04-02T19:30:00Z,26.2168,-96.4998,4.0,3.830469945,162.8425353,5.36,'11111222,11111222,11111222' 
TABS,ioos:station:wmo:42045:1,2007-04-02T20:00:00Z,26.2168,-96.4998,4.0,4.199452345,153.8623376,5.59,'11111222,11111222,11111222' 
TABS,ioos:station:wmo:42045:1,2007-04-02T20:30:00Z,26.2168,-96.4998,4.0,4.439380587,159.5650581,5.59,'11111222,11111222,11111222' 
TABS,ioos:station:wmo:42045:1,2007-04-02T21:00:00Z,26.2168,-96.4998,4.0,4.872966242,155.3811569,6.07,'11111222,11111222,11111222' 
TABS,ioos:station:wmo:42045:1,2007-04-02T21:30:00Z,26.2168,-96.4998,4.0,4.016615491,149.476877,4.96,'11111222,11111222,11111222' 
TABS,ioos:station:wmo:42045:1,2007-04-02T22:00:00Z,26.2168,-96.4998,4.0,3.904868756,136.6605942,5.33,'11111222,11111222,11111222' 
TABS,ioos:station:wmo:42045:1,2007-04-02T22:30:00Z,26.2168,-96.4998,4.0,4.373785546,137.4093914,5.73,'11111222,11111222,11111222' 
TABS,ioos:station:wmo:42045:1,2007-04-02T23:00:00Z,26.2168,-96.4998,4.0,5.268548187,143.9569304,6.79,'11111222,11111222,11111222' 
TABS,ioos:station:wmo:42045:1,2007-04-02T23:30:00Z,26.2168,-96.4998,4.0,4.44694277,154.9911592,5.85,'11111222,11111222,11111222' 
TABS,ioos:station:wmo:42045:1,2007-04-03T00:00:00Z,26.2168,-96.4998,4.0,3.806638937,156.4656912,4.87,'11111222,11111222,11111222' 
TABS,ioos:station:wmo:42045:1,2007-04-03T00:30:00Z,26.2168,-96.4998,4.0,4.024487545,145.8363884,5.1,'11111222,11111222,11111222' 
TABS,ioos:station:wmo:42045:1,2007-04-03T01:00:00Z,26.2168,-96.4998,4.0,4.358313894,144.9975022,5.65,'11111222,11111222,11111222' 
TABS,ioos:station:wmo:42045:1,2007-04-03T01:30:00Z,26.2168,-96.4998,4.0,4.692600558,132.4957678,5.34,'11111222,11111222,11111222' 
TABS,ioos:station:wmo:42045:1,2007-04-03T02:00:00Z,26.2168,-96.4998,4.0,4.087884538,115.8132128,5.11,'11111222,11111222,11111222' 
TABS,ioos:station:wmo:42045:1,2007-04-03T02:30:00Z,26.2168,-96.4998,4.0,4.431026969,114.2516929,5.75,'11111222,11111222,11111222' 
TABS,ioos:station:wmo:42045:1,2007-04-03T03:00:00Z,26.2168,-96.4998,4.0,4.112857887,125.6999588,5.35,'11111222,11111222,11111222' 
TABS,ioos:station:wmo:42045:1,2007-04-03T03:30:00Z,26.2168,-96.4998,4.0,4.658690803,122.0187658,6.29,'11111222,11111222,11111222' 
TABS,ioos:station:wmo:42045:1,2007-04-03T04:00:00Z,26.2168,-96.4998,4.0,4.925494899,119.4278085,6.02,'11111222,11111222,11111222' 
TABS,ioos:station:wmo:42045:1,2007-04-03T04:30:00Z,26.2168,-96.4998,4.0,5.452118854,127.2485547,6.64,'11111222,11111222,11111222' 
TABS,ioos:station:wmo:42045:1,2007-04-03T05:00:00Z,26.2168,-96.4998,4.0,5.546314091,133.2469149,6.76,'11111222,11111222,11111222' 
TABS,ioos:station:wmo:42045:1,2007-04-03T05:30:00Z,26.2168,-96.4998,4.0,4.460515665,137.9080718,5.37,'11111222,11111222,11111222' 
TABS,ioos:station:wmo:42045:1,2007-04-03T06:00:00Z,26.2168,-96.4998,4.0,4.715050371,146.6809531,6.24,'11111222,11111222,11111222' 
TABS,ioos:station:wmo:42045:1,2007-04-03T06:30:00Z,26.2168,-96.4998,4.0,6.316050981,147.2160063,8.09,'11111222,11111222,11111222' 
TABS,ioos:station:wmo:42045:1,2007-04-03T07:00:00Z,26.2168,-96.4998,4.0,6.896085846,153.6581605,8.32,'11111222,11111222,11111222' 
TABS,ioos:station:wmo:42045:1,2007-04-03T07:30:00Z,26.2168,-96.4998,4.0,5.021115414,174.7438078,6.73,'11111222,11111222,11111222' 
TABS,ioos:station:wmo:42045:1,2007-04-03T08:00:00Z,26.2168,-96.4998,4.0,4.780062761,171.7006139,6.15,'11111222,11111222,11111222' 
TABS,ioos:station:wmo:42045:1,2007-04-03T08:30:00Z,26.2168,-96.4998,4.0,5.196691255,153.7310655,6.13,'11111222,11111222,11111222' 
TABS,ioos:station:wmo:42045:1,2007-04-03T09:00:00Z,26.2168,-96.4998,4.0,5.615736817,159.7905146,6.91,'11111222,11111222,11111222' 
TABS,ioos:station:wmo:42045:1,2007-04-03T09:30:00Z,26.2168,-96.4998,4.0,4.100195117,157.9393626,5.09,'11111222,11111222,11111222' 
TABS,ioos:station:wmo:42045:1,2007-04-03T10:00:00Z,26.2168,-96.4998,4.0,3.222204215,159.0904125,3.84,'11111222,11111222,11111222' 
TABS,ioos:station:wmo:42045:1,2007-04-03T10:30:00Z,26.2168,-96.4998,4.0,4.430282158,156.7337481,5.42,'11111222,11111222,11111222' 
TABS,ioos:station:wmo:42045:1,2007-04-03T11:00:00Z,26.2168,-96.4998,4.0,4.669304017,157.0594706,5.64,'11111222,11111222,11111222' 
TABS,ioos:station:wmo:42045:1,2007-04-03T11:30:00Z,26.2168,-96.4998,4.0,3.985385803,157.4246336,5.13,'11111222,11111222,11111222' 
TABS,ioos:station:wmo:42045:1,2007-04-03T12:00:00Z,26.2168,-96.4998,4.0,3.437353633,167.0555984,4.36,'11111222,11111222,11111222' 
TABS,ioos:station:wmo:42045:1,2007-04-03T12:30:00Z,26.2168,-96.4998,4.0,3.274706094,166.9400534,4.16,'11111222,11111222,11111222' 
TABS,ioos:station:wmo:42045:1,2007-04-03T13:00:00Z,26.2168,-96.4998,4.0,3.609348972,154.2161546,4.71,'11111222,11111222,11111222' 
TABS,ioos:station:wmo:42045:1,2007-04-03T13:30:00Z,26.2168,-96.4998,4.0,4.34099067,156.8016742,5.44,'11111222,11111222,11111222' 
TABS,ioos:station:wmo:42045:1,2007-04-03T14:00:00Z,26.2168,-96.4998,4.0,5.091296495,159.5364131,6.64,'11111222,11111222,11111222' 
TABS,ioos:station:wmo:42045:1,2007-04-03T14:30:00Z,26.2168,-96.4998,4.0,5.07126217,149.2884163,6.58,'11111222,11111222,11111222' 
TABS,ioos:station:wmo:42045:1,2007-04-03T15:00:00Z,26.2168,-96.4998,4.0,5.670008818,149.5910948,6.95,'11111222,11111222,11111222' 
TABS,ioos:station:wmo:42045:1,2007-04-03T15:30:00Z,26.2168,-96.4998,4.0,6.726797158,155.6831977,8.36,'11111222,11111222,11111222' 
TABS,ioos:station:wmo:42045:1,2007-04-03T16:00:00Z,26.2168,-96.4998,4.0,7.260688673,158.1695447,8.97,'11111222,11111222,11111222' 
TABS,ioos:station:wmo:42045:1,2007-04-03T16:30:00Z,26.2168,-96.4998,4.0,7.859370204,164.9561248,9.85,'11111222,11111222,11111222' 
TABS,ioos:station:wmo:42045:1,2007-04-03T17:00:00Z,26.2168,-96.4998,4.0,8.557131529,169.3600145,10.52,'11111222,11111222,11111222' 
TABS,ioos:station:wmo:42045:1,2007-04-03T17:30:00Z,26.2168,-96.4998,4.0,7.442103197,166.9536892,10.08,'11111222,11111222,11111222' 
TABS,ioos:station:wmo:42045:1,2007-04-03T18:00:00Z,26.2168,-96.4998,4.0,7.596130594,174.4097157,9.16,'11111222,11111222,11111222' 
TABS,ioos:station:wmo:42045:1,2007-04-03T18:30:00Z,26.2168,-96.4998,4.0,7.274125377,173.6861284,8.9,'11111222,11111222,11111222' 
TABS,ioos:station:wmo:42045:1,2007-04-03T19:00:00Z,26.2168,-96.4998,4.0,6.910817607,173.7699004,8.54,'11111222,11111222,11111222' 
TABS,ioos:station:wmo:42045:1,2007-04-03T19:30:00Z,26.2168,-96.4998,4.0,6.852919086,172.8752108,8.66,'11111222,11111222,11111222' 
TABS,ioos:station:wmo:42045:1,2007-04-03T20:00:00Z,26.2168,-96.4998,4.0,6.72021577,172.9915362,8.19,'11111222,11111222,11111222' 
TABS,ioos:station:wmo:42045:1,2007-04-03T20:30:00Z,26.2168,-96.4998,4.0,6.72883348,171.7978754,8.4,'11111222,11111222,11111222' 
TABS,ioos:station:wmo:42045:1,2007-04-03T21:00:00Z,26.2168,-96.4998,4.0,5.839768831,169.9411023,7.3,'11111222,11111222,11111222' 
TABS,ioos:station:wmo:42045:1,2007-04-03T21:30:00Z,26.2168,-96.4998,4.0,5.121728224,167.4835658,6.44,'11111222,11111222,11111222' 
TABS,ioos:station:wmo:42045:1,2007-04-03T22:00:00Z,26.2168,-96.4998,4.0,4.901938392,160.8260471,6.15,'11111222,11111222,11111222' 
TABS,ioos:station:wmo:42045:1,2007-04-03T22:30:00Z,26.2168,-96.4998,4.0,4.380799014,157.591672,5.57,'11111222,11111222,11111222' 
TABS,ioos:station:wmo:42045:1,2007-04-03T23:00:00Z,26.2168,-96.4998,4.0,4.837364985,155.4484854,6.11,'11111222,11111222,11111222' 
TABS,ioos:station:wmo:42045:1,2007-04-03T23:30:00Z,26.2168,-96.4998,4.0,4.991001903,153.0758448,6.23,'11111222,11111222,11111222' 
TABS,ioos:station:wmo:42045:1,2007-04-04T00:00:00Z,26.2168,-96.4998,4.0,4.069889433,154.0648185,5.02,'11111222,11111222,11111222' 
TABS,ioos:station:wmo:42045:1,2007-04-04T00:30:00Z,26.2168,-96.4998,4.0,3.949202451,152.721496,4.88,'11111222,11111222,11111222' 
TABS,ioos:station:wmo:42045:1,2007-04-04T01:00:00Z,26.2168,-96.4998,4.0,3.42778354,151.4164979,4.29,'11111222,11111222,11111222' 
TABS,ioos:station:wmo:42045:1,2007-04-04T01:30:00Z,26.2168,-96.4998,4.0,1.556663098,132.9177553,2.25,'11111222,11111222,11111222' 
TABS,ioos:station:wmo:42045:1,2007-04-04T02:00:00Z,26.2168,-96.4998,4.0,2.562225595,132.4695586,3.39,'11111222,11111222,11111222' 
TABS,ioos:station:wmo:42045:1,2007-04-04T02:30:00Z,26.2168,-96.4998,4.0,4.157811925,134.8054333,5.27,'11111222,11111222,11111222' 
TABS,ioos:station:wmo:42045:1,2007-04-04T03:00:00Z,26.2168,-96.4998,4.0,5.662578918,132.4237499,6.92,'11111222,11111222,11111222' 
TABS,ioos:station:wmo:42045:1,2007-04-04T03:30:00Z,26.2168,-96.4998,4.0,5.666683333,136.787989,7.18,'11111222,11111222,11111222' 
TABS,ioos:station:wmo:42045:1,2007-04-04T04:00:00Z,26.2168,-96.4998,4.0,4.825805632,141.5629989,6.19,'11111222,11111222,11111222' 
TABS,ioos:station:wmo:42045:1,2007-04-04T04:30:00Z,26.2168,-96.4998,4.0,4.37388843,157.1284846,5.31,'11111222,11111222,11111222' 
TABS,ioos:station:wmo:42045:1,2007-04-04T05:00:00Z,26.2168,-96.4998,4.0,4.826033568,154.3378585,6.23,'11111222,11111222,11111222' 
TABS,ioos:station:wmo:42045:1,2007-04-04T05:30:00Z,26.2168,-96.4998,4.0,5.429732958,158.1596621,6.87,'11111222,11111222,11111222' 
TABS,ioos:station:wmo:42045:1,2007-04-04T06:00:00Z,26.2168,-96.4998,4.0,5.867069115,162.6462264,7.47,'11111222,11111222,11111222' 
TABS,ioos:station:wmo:42045:1,2007-04-04T06:30:00Z,26.2168,-96.4998,4.0,5.604462508,164.4761358,7.21,'11111222,11111222,11111222' 
TABS,ioos:station:wmo:42045:1,2007-04-04T07:00:00Z,26.2168,-96.4998,4.0,4.914712606,175.5657503,6.18,'11111222,11111222,11111222' 
TABS,ioos:station:wmo:42045:1,2007-04-04T07:30:00Z,26.2168,-96.4998,4.0,6.013326866,178.0942368,7.74,'11111222,11111222,11111222' 
TABS,ioos:station:wmo:42045:1,2007-04-04T08:00:00Z,26.2168,-96.4998,4.0,6.482229555,181.5029923,8.4,'11111222,11111222,11111222' 
TABS,ioos:station:wmo:42045:1,2007-04-04T08:30:00Z,26.2168,-96.4998,4.0,5.225188992,219.8758865,6.54,'11111222,11111222,11111222' 
TABS,ioos:station:wmo:42045:1,2007-04-04T09:00:00Z,26.2168,-96.4998,4.0,3.018410178,189.1504458,4.33,'11111222,11111222,11111222' 
TABS,ioos:station:wmo:42045:1,2007-04-04T09:30:00Z,26.2168,-96.4998,4.0,4.90267274,320.6282478,8.69,'11111222,11111222,11111222' 
TABS,ioos:station:wmo:42045:1,2007-04-04T10:00:00Z,26.2168,-96.4998,4.0,8.051161407,18.3896869,10.69,'11111222,11111222,11111222' 
TABS,ioos:station:wmo:42045:1,2007-04-04T10:30:00Z,26.2168,-96.4998,4.0,7.332843923,42.45733903,8.96,'11111222,11111222,11111222' 
TABS,ioos:station:wmo:42045:1,2007-04-04T11:00:00Z,26.2168,-96.4998,4.0,4.59918471,78.07886842,6.87,'11111222,11111222,11111222' 
TABS,ioos:station:wmo:42045:1,2007-04-04T11:30:00Z,26.2168,-96.4998,4.0,5.945166104,125.0002545,8.0,'11111222,11111222,11111222' 
TABS,ioos:station:wmo:42045:1,2007-04-04T12:00:00Z,26.2168,-96.4998,4.0,5.740400683,125.2131349,7.92,'11111222,11111222,11111222' 
TABS,ioos:station:wmo:42045:1,2007-04-04T12:30:00Z,26.2168,-96.4998,4.0,4.449359504,112.1843824,5.78,'11111222,11111222,11111222' 
TABS,ioos:station:wmo:42045:1,2007-04-04T13:00:00Z,26.2168,-96.4998,4.0,4.699106298,101.7885767,6.23,'11111222,11111222,11111222' 
TABS,ioos:station:wmo:42045:1,2007-04-04T13:30:00Z,26.2168,-96.4998,4.0,5.771178389,115.0112582,7.2,'11111222,11111222,11111222' 
TABS,ioos:station:wmo:42045:1,2007-04-04T14:00:00Z,26.2168,-96.4998,4.0,4.679230706,130.8406831,6.03,'11111222,11111222,11111222' 
TABS,ioos:station:wmo:42045:1,2007-04-04T14:30:00Z,26.2168,-96.4998,4.0,5.424361714,130.7391024,6.87,'11111222,11111222,11111222' 
TABS,ioos:station:wmo:42045:1,2007-04-04T15:00:00Z,26.2168,-96.4998,4.0,4.472135955,137.1750547,5.95,'11111222,11111222,11111222' 
TABS,ioos:station:wmo:42045:1,2007-04-04T15:30:00Z,26.2168,-96.4998,4.0,3.513659061,131.5390699,4.62,'11111222,11111222,11111222' 
TABS,ioos:station:wmo:42045:1,2007-04-04T16:00:00Z,26.2168,-96.4998,4.0,1.897603752,39.22537191,3.0,'11111222,11111222,11111222' 
TABS,ioos:station:wmo:42045:1,2007-04-04T16:30:00Z,26.2168,-96.4998,4.0,3.264965543,356.8394353,4.26,'11111222,11111222,11111222' 
TABS,ioos:station:wmo:42045:1,2007-04-04T17:00:00Z,26.2168,-96.4998,4.0,4.618755244,11.86925308,5.93,'11111222,11111222,11111222' 
TABS,ioos:station:wmo:42045:1,2007-04-04T17:30:00Z,26.2168,-96.4998,4.0,5.911590311,24.4837933,7.31,'11111222,11111222,11111222' 
TABS,ioos:station:wmo:42045:1,2007-04-04T18:00:00Z,26.2168,-96.4998,4.0,5.149650474,16.00627979,6.46,'11111222,11111222,11111222' 
TABS,ioos:station:wmo:42045:1,2007-04-04T18:30:00Z,26.2168,-96.4998,4.0,5.450614644,31.64853684,7.07,'11111222,11111222,11111222' 